BREEZE-KM DEB, 41721

Orbit data source: Space-Track

BREEZE-KM DEB, 41721 is space debris in LEO originally from a launch on Tue, 31 Mar 2015 UTC launched from the Plesetsk Missile And Space Complex (PKMTR). Debris objects in space refer to the collection of defunct objects orbiting the Earth. Examples of debris include non-operational satellites, rocket bodies, and fragments generated from explosions, collisions, or faulty payload assembly.

Loading next visibility...
Identifier
41721, 2015-020J
Orbit
LEO
Country
Flag of CISCIS
Related business
Manufacturer
Khrunichev
Mission
Spacecraft
Bus & Motor
Unknown
Mass
Unknown
Launch date (UTC)
2015-03-31 (11 years ago)
Launch vehicle
Unknown
Launch site
Plesetsk Missile And Space Complex (PKMTR)
Object type
Payload
Rocket body
Debris
Shape & HBR
Unknown shape, 0.1 m
Radar Cross Section
Medium (>0.1 m² and <1 m²)

Expand to show TLE details & history
Last TLE update: 2 days ago

TLE from 2 days ago
0 BREEZE-KM DEB
1 41721U 15020J   26235.64055551  .00000025  00000-0  61795-4 0  9991
2 41721  82.4937 190.7304 0244659 341.5641  17.6704 12.74753964520783
Epoch: 2026-08-23T15:22Z
TLE epoch observation values (Epoch: 2026-08-23T15:22:23.996Z)
Latitude
-0.00001°
Longitude
-11.80329°
Altitude
1,185.345 km
Speed
7.345 km/s
True Right ascension
12h 42m 55s
True Declination
0° 00' 00"
Sunlit
Object was in daylight at epoch
Visualization orbit readout
Latitude
Unknown
Longitude
Unknown
Altitude
Unknown
Speed
Unknown
Apparent Right ascension
Unknown
Apparent Declination
Unknown
Sunlit
N/A
Visualization observer readout
Local Sidereal Time
09:48:13
Azimuth
Unknown
Elevation
Unknown
Doppler factor
Unknown
Orbital elements
Apogee altitude
1,549.258 km
Perigee altitude
1,170.62 km
Semi-major axis
7,738.076 km
Eccentricity
0.02447
Inclination
82.4937°
RAAN
190.7304°
Arg. of periapsis
341.5641°
True anomaly
18.54688°
Mean anomaly
17.6704°
Eccentric anomaly
18.10604°
Mean motion
3.18855 °/min
Orbital period
112.9 mins
BSTAR
0.000061795
Loading maneuver chart data...
Computing Atmospheric mass density...
Loading historical data...
Loading historical data...
Loading historical data...
Loading historical data...
Loading historical data...
Loading historical data...
Loading historical data...

Documentation

Showing up to 5 results
|